Погода в Верхнем Студенце

Россия / Липецкая область     52°36′08″N   39°03′18″E
темп.,
°C
ветер,
м/с
пор.,
м/с
влажн.,
%
обл.,
%
осадки,
мм/ч
давл.,
гПа
погр.,
м
9 марта, вт
вт900:00−10сз119280 0.0 101021
03:00−11ссз239190 0.0 101133
06:00−13ссз3595100 0.0 1012110
09:00−11с4794100 0.0 1013298
12:00−10ссз468891 0.0 1015512
15:00−10сз568694 0.0 1017640
18:00−13сз369195 0.0 1018142
21:00−15сз359456 0.0 102183
10 марта, ср
ср1000:00−16сз369542 0.0 1022118
03:00−18сз349669 0.0 102355
06:00−20сз36971 0.0 102596
09:00−19ссз47931 0.0 1027303
12:00−16ссз46880 0.0 1028404
15:00−15ссз46875 0.0 1028447
18:00−18ссз339372 0.0 102962
21:00−21с339543 0.0 103129
11 марта, чт
чт1100:00−23с23940 0.0 103220
03:00−23с22930 0.0 103320
06:00−23с22900 0.0 103420
09:00−19с23860 0.0 1035112
12:00−15ссз23770 0.0 1035329
15:00−13ссз22784 0.0 1034473
18:00−16ссз228943 0.0 103420
21:00−19с129322 0.0 103520
12 марта, пт
пт1200:00−20св11950 0.0 103520
03:00−20вюв11930 0.0 103520
06:00−20ююв11930 0.0 103520
09:00−16ююв22890 0.0 1035103
12:00−11ю34809 0.0 1035473
15:00−9ю36725 0.0 1034674
18:00−12ю33770 0.0 103323
21:00−13ююв34780 0.0 103365
13 марта, сб
сб1300:00−12ююв4108030 0.0 1032181
03:00−11ю5137765 0.0 1030322
06:00−10ю61475100 0.0 1029405
09:00−8ю71471100 0.0 1028618
12:00−6ююз81373100 0.0 1028843
15:00−4ююз81282100 0.1 1026891
18:00−5ююз6129097 0.1 1026611
21:00−5ююз5148292 0.1 1025440